Madison, SD

5:06 AM CST on December 10, 2019 (GMT -0600)
Madison Municipal

Weather History for KMDS - October, 2019

Change the Weather History Date:

Thursday, October 24, 2019

  Actual Average Record
Temperature  
Mean Temperature 35 °F -  
Max Temperature 44 °F 56 °F 75 °F (2014)
Min Temperature 26 °F 34 °F 26 °F (2013)
Degree Days  
Heating Degree Days 30    
Moisture  
Dew Point 29 °F    
Average Humidity 83    
Maximum Humidity 100    
Minimum Humidity 49    
Precipitation  
Precipitation 0.00 in - - ()
Sea Level Pressure  
Sea Level Pressure 30.32 in    
Wind  
Wind Speed 8 mph ()    
Max Wind Speed 14 mph    
Max Gust Speed 23 mph    
Visibility 10.0 miles    
Events      
Averages and records for this station are not official NWS values.
T = Trace of Precipitation, MM = Missing Value Source: Averaged Metar Reports

Daily Weather History Graph

Daily Weather History Graph

Search for Another Location

Airport or City:

Astronomy

Oct. 24, 2019 Rise Set
Actual Time 7:54 AM CDT 6:30 PM CDT
Civil Twilight 7:24 AM CDT 6:59 PM CDT
Nautical Twilight 6:50 AM CDT 7:33 PM CDT
Astronomical Twilight 6:17 AM CDT 8:06 PM CDT
Moon 3:12 AM CDT (10/24) 5:09 PM CDT (10/24)
Length of Visible Light 11h 35m
Length of Day
10h 36m
Waning Crescent, 16% of the Moon is Illuminated
Oct 24
Waning Crescent
Oct 27
New
Nov 4
First Quarter
Nov 12
Full
Nov 19
Last Quarter

Hourly Weather History & Observations

Time (CDT) Temp. Windchill Dew Point Humidity Pressure Visibility Wind Dir Wind Speed Gust Speed Precip Events Conditions
12:15 AM 33.8 °F 24.3 °F 26.6 °F 75% 30.23 in 10.0 mi North 13.8 mph 23.0 mph N/A   Overcast
12:20 AM 33.8 °F 25.8 °F 26.6 °F 75% 30.23 in 10.0 mi NNW 10.4 mph 23.0 mph N/A   Overcast
12:35 AM 32.0 °F 23.6 °F 28.4 °F 87% 30.23 in 10.0 mi North 10.4 mph - N/A   Overcast
12:40 AM 32.0 °F 24.8 °F 28.4 °F 87% 30.23 in 10.0 mi North 8.1 mph - N/A   Overcast
12:55 AM 32.0 °F 23.6 °F 26.6 °F 80% 30.24 in 10.0 mi NNW 10.4 mph - N/A   Overcast
1:15 AM 32.0 °F 24.8 °F 28.4 °F 87% 30.25 in 10.0 mi NNW 8.1 mph - N/A   Overcast
1:35 AM 30.2 °F 23.4 °F 28.4 °F 93% 30.26 in 10.0 mi NW 6.9 mph - N/A   Scattered Clouds
1:55 AM 30.2 °F 23.4 °F 26.6 °F 86% 30.28 in 10.0 mi West 6.9 mph - N/A   Clear
2:15 AM 30.2 °F 22.6 °F 28.4 °F 93% 30.29 in 10.0 mi West 8.1 mph - N/A   Clear
2:20 AM 30.2 °F 22.6 °F 28.4 °F 93% 30.29 in 10.0 mi WNW 8.1 mph - N/A   Clear
2:35 AM 30.2 °F 23.4 °F 30.2 °F 100% 30.29 in 10.0 mi WNW 6.9 mph - N/A   Clear
2:40 AM 30.2 °F 23.4 °F 30.2 °F 100% 30.29 in 10.0 mi West 6.9 mph - N/A   Clear
2:55 AM 28.4 °F 21.2 °F 28.4 °F 100% 30.29 in 10.0 mi West 6.9 mph - N/A   Clear
3:00 AM 28.4 °F 22.2 °F 28.4 °F 100% 30.29 in 10.0 mi West 5.8 mph - N/A   Clear
3:15 AM 28.4 °F 20.4 °F 28.4 °F 100% 30.29 in 10.0 mi West 8.1 mph - N/A   Clear
3:35 AM 28.4 °F 19.7 °F 28.4 °F 100% 30.29 in 10.0 mi West 9.2 mph - N/A   Clear
3:40 AM 28.4 °F 20.4 °F 28.4 °F 100% 30.29 in 10.0 mi West 8.1 mph - N/A   Clear
3:55 AM 28.4 °F 19.1 °F 28.4 °F 100% 30.30 in 10.0 mi WNW 10.4 mph - N/A   Clear
4:00 AM 28.4 °F 19.7 °F 28.4 °F 100% 30.30 in 10.0 mi West 9.2 mph - N/A   Scattered Clouds
4:15 AM 28.4 °F 19.7 °F 28.4 °F 100% 30.31 in 10.0 mi WNW 9.2 mph - N/A   Mostly Cloudy
4:20 AM 28.4 °F 19.7 °F 28.4 °F 100% 30.31 in 10.0 mi WNW 9.2 mph - N/A   Overcast
4:40 AM 28.4 °F 19.1 °F 28.4 °F 100% 30.30 in 10.0 mi WNW 10.4 mph - N/A   Overcast
4:55 AM 30.2 °F 21.3 °F 30.2 °F 100% 30.30 in 10.0 mi WNW 10.4 mph - N/A   Overcast
5:15 AM 28.4 °F 19.7 °F 28.4 °F 100% 30.31 in 10.0 mi West 9.2 mph - N/A   Overcast
5:20 AM 28.4 °F 20.4 °F 28.4 °F 100% 30.31 in 10.0 mi WNW 8.1 mph - N/A   Overcast
5:35 AM 28.4 °F 20.4 °F 28.4 °F 100% 30.30 in 10.0 mi West 8.1 mph - N/A   Overcast
5:40 AM 28.4 °F 20.4 °F 28.4 °F 100% 30.31 in 10.0 mi WNW 8.1 mph - N/A   Mostly Cloudy
6:15 AM 28.4 °F 21.2 °F 28.4 °F 100% 30.31 in 10.0 mi WNW 6.9 mph - N/A   Mostly Cloudy
6:20 AM 28.4 °F 21.2 °F 28.4 °F 100% 30.31 in 10.0 mi West 6.9 mph - N/A   Mostly Cloudy
6:35 AM 28.4 °F 21.2 °F 28.4 °F 100% 30.30 in 10.0 mi WNW 6.9 mph - N/A   Partly Cloudy
6:55 AM 28.4 °F 19.7 °F 28.4 °F 100% 30.31 in 10.0 mi West 9.2 mph 16.1 mph N/A   Clear
7:20 AM 28.4 °F 19.7 °F 28.4 °F 100% 30.31 in 10.0 mi WNW 9.2 mph - N/A   Clear
7:35 AM 28.4 °F 19.7 °F 28.4 °F 100% 30.32 in 10.0 mi West 9.2 mph - N/A   Clear
7:55 AM 28.4 °F 18.5 °F 28.4 °F 100% 30.32 in 10.0 mi WNW 11.5 mph - N/A   Clear
8:00 AM 28.4 °F 19.1 °F 28.4 °F 100% 30.32 in 10.0 mi WNW 10.4 mph - N/A   Clear
8:15 AM 26.6 °F 16.8 °F 26.6 °F 100% 30.32 in 10.0 mi WNW 10.4 mph - N/A   Clear
8:20 AM 28.4 °F 18.5 °F 28.4 °F 100% 30.33 in 10.0 mi WNW 11.5 mph - N/A   Clear
8:35 AM 28.4 °F 18.5 °F 28.4 °F 100% 30.33 in 10.0 mi WNW 11.5 mph - N/A   Clear
8:55 AM 28.4 °F 18.5 °F 28.4 °F 100% 30.34 in 10.0 mi WNW 11.5 mph - N/A   Clear
9:15 AM 30.2 °F 20.8 °F 30.2 °F 100% 30.35 in 10.0 mi WNW 11.5 mph - N/A   Clear
9:20 AM 30.2 °F 21.3 °F 30.2 °F 100% 30.35 in 10.0 mi WNW 10.4 mph - N/A   Clear
9:35 AM 32.0 °F 23.6 °F 32.0 °F 100% 30.36 in 10.0 mi WNW 10.4 mph - N/A   Clear
9:40 AM 32.0 °F 23.6 °F 32.0 °F 100% 30.36 in 10.0 mi WNW 10.4 mph - N/A   Clear
9:55 AM 32.0 °F 22.5 °F 32.0 °F 100% 30.36 in 10.0 mi NW 12.7 mph - N/A   Clear
10:00 AM 32.0 °F 22.1 °F 32.0 °F 100% 30.36 in 10.0 mi NW 13.8 mph - N/A   Clear
10:15 AM 32.0 °F 22.5 °F 32.0 °F 100% 30.37 in 10.0 mi NW 12.7 mph - N/A   Clear
10:20 AM 32.0 °F 23.0 °F 32.0 °F 100% 30.37 in 10.0 mi NW 11.5 mph - N/A   Clear
10:35 AM 33.8 °F 25.8 °F 33.8 °F 100% 30.37 in 10.0 mi NW 10.4 mph - N/A   Clear
10:40 AM 33.8 °F 25.3 °F 33.8 °F 100% 30.38 in 10.0 mi NW 11.5 mph - N/A   Clear
10:55 AM 35.6 °F 28.6 °F 33.8 °F 93% 30.38 in 10.0 mi WNW 9.2 mph - N/A   Clear
11:15 AM 35.6 °F 27.5 °F 32.0 °F 87% 30.38 in 10.0 mi WNW 11.5 mph - N/A   Clear
11:20 AM 35.6 °F 28.6 °F 32.0 °F 87% 30.38 in 10.0 mi NW 9.2 mph - N/A   Clear
11:35 AM 37.4 °F 30.8 °F 32.0 °F 81% 30.38 in 10.0 mi WNW 9.2 mph - N/A   Clear
11:40 AM 37.4 °F 30.8 °F 32.0 °F 81% 30.38 in 10.0 mi NNW 9.2 mph - N/A   Clear
11:55 AM 39.2 °F 31.6 °F 28.4 °F 65% 30.38 in 10.0 mi NW 12.7 mph - N/A   Clear
12:00 PM 39.2 °F 32.0 °F 28.4 °F 65% 30.38 in 10.0 mi NNW 11.5 mph - N/A   Clear
12:15 PM 39.2 °F 33.0 °F 26.6 °F 61% 30.37 in 10.0 mi NW 9.2 mph 18.4 mph N/A   Clear
12:20 PM 39.2 °F 33.0 °F 26.6 °F 61% 30.37 in 10.0 mi NNW 9.2 mph 18.4 mph N/A   Clear
1:15 PM 41.0 °F 37.1 °F 26.6 °F 57% 30.36 in 10.0 mi NW 5.8 mph - N/A   Clear
1:35 PM 41.0 °F 34.7 °F 26.6 °F 57% 30.36 in 10.0 mi WNW 10.4 mph - N/A   Clear
1:40 PM 41.0 °F 36.4 °F 26.6 °F 57% 30.35 in 10.0 mi NW 6.9 mph - N/A   Clear
1:55 PM 41.0 °F 33.9 °F 26.6 °F 57% 30.35 in 10.0 mi West 12.7 mph - N/A   Clear
2:15 PM 42.8 °F 37.5 °F 26.6 °F 53% 30.34 in 10.0 mi WNW 9.2 mph - N/A   Clear
2:20 PM 42.8 °F 36.2 °F 28.4 °F 57% 30.34 in 10.0 mi WNW 12.7 mph - N/A   Clear
2:35 PM 42.8 °F 37.5 °F 26.6 °F 53% 30.34 in 10.0 mi NW 9.2 mph - N/A   Clear
2:40 PM 42.8 °F 38.6 °F 26.6 °F 53% 30.34 in 10.0 mi West 6.9 mph - N/A   Clear
3:15 PM 44.6 °F 39.7 °F 28.4 °F 53% 30.33 in 10.0 mi WNW 9.2 mph - N/A   Clear
3:20 PM 44.6 °F 40.2 °F 28.4 °F 53% 30.32 in 10.0 mi WNW 8.1 mph - N/A   Clear
3:35 PM 44.6 °F 38.4 °F 28.4 °F 53% 30.32 in 10.0 mi NW 12.7 mph - N/A   Clear
3:55 PM 44.6 °F 39.2 °F 26.6 °F 49% 30.32 in 10.0 mi NW 10.4 mph 17.3 mph N/A   Clear
4:00 PM 44.6 °F 39.2 °F 26.6 °F 49% 30.32 in 10.0 mi NW 10.4 mph - N/A   Clear
4:15 PM 44.6 °F 40.7 °F 26.6 °F 49% 30.32 in 10.0 mi West 6.9 mph - N/A   Partly Cloudy
4:20 PM 42.8 °F 37.5 °F 26.6 °F 53% 30.32 in 10.0 mi WNW 9.2 mph - N/A   Partly Cloudy
4:35 PM 44.6 °F 38.8 °F 26.6 °F 49% 30.32 in 10.0 mi NW 11.5 mph - N/A   Partly Cloudy
4:55 PM 42.8 °F 38.6 °F 26.6 °F 53% 30.31 in 10.0 mi NW 6.9 mph - N/A   Clear
5:15 PM 42.8 °F 37.0 °F 26.6 °F 53% 30.31 in 10.0 mi NW 10.4 mph - N/A   Clear
5:35 PM 41.0 °F 37.1 °F 28.4 °F 61% 30.30 in 10.0 mi WNW 5.8 mph - N/A   Clear
5:40 PM 41.0 °F 36.4 °F 28.4 °F 61% 30.30 in 10.0 mi WNW 6.9 mph - N/A   Clear
5:55 PM 41.0 °F 36.4 °F 26.6 °F 57% 30.30 in 10.0 mi WNW 6.9 mph - N/A   Clear
6:00 PM 41.0 °F 37.1 °F 26.6 °F 57% 30.30 in 10.0 mi WNW 5.8 mph - N/A   Clear
6:15 PM 41.0 °F 38.0 °F 26.6 °F 57% 30.30 in 10.0 mi West 4.6 mph - N/A   Clear
6:20 PM 41.0 °F 38.0 °F 26.6 °F 57% 30.30 in 10.0 mi West 4.6 mph - N/A   Clear
6:35 PM 39.2 °F 37.0 °F 26.6 °F 61% 30.31 in 10.0 mi WSW 3.5 mph - N/A   Clear
6:40 PM 39.2 °F 35.9 °F 26.6 °F 61% 30.31 in 10.0 mi WSW 4.6 mph - N/A   Clear
6:55 PM 39.2 °F 35.9 °F 26.6 °F 61% 30.31 in 10.0 mi SSW 4.6 mph - N/A   Clear
7:00 PM 37.4 °F 33.8 °F 26.6 °F 65% 30.31 in 10.0 mi SSW 4.6 mph - N/A   Clear
7:15 PM 37.4 °F 32.8 °F 28.4 °F 70% 30.31 in 10.0 mi South 5.8 mph - N/A   Clear
7:35 PM 35.6 °F 30.7 °F 30.2 °F 81% 30.31 in 10.0 mi South 5.8 mph - N/A   Clear
7:40 PM 35.6 °F 30.7 °F 30.2 °F 81% 30.31 in 10.0 mi South 5.8 mph - N/A   Clear
7:55 PM 33.8 °F 29.6 °F 30.2 °F 87% 30.32 in 10.0 mi SSW 4.6 mph - N/A   Clear
8:00 PM 35.6 °F 31.7 °F 32.0 °F 87% 30.32 in 10.0 mi SSW 4.6 mph - N/A   Clear
8:15 PM 35.6 °F 30.7 °F 32.0 °F 87% 30.32 in 10.0 mi SSW 5.8 mph - N/A   Clear
8:35 PM 33.8 °F 28.6 °F 32.0 °F 93% 30.32 in 10.0 mi South 5.8 mph - N/A   Clear
8:40 PM 33.8 °F 28.6 °F 30.2 °F 87% 30.32 in 10.0 mi South 5.8 mph - N/A   Clear
8:55 PM 33.8 °F 29.6 °F 30.2 °F 87% 30.32 in 10.0 mi South 4.6 mph - N/A   Scattered Clouds
9:15 PM 32.0 °F 25.6 °F 30.2 °F 93% 30.32 in 10.0 mi South 6.9 mph - N/A   Overcast
9:35 PM 32.0 °F 27.5 °F 32.0 °F 100% 30.33 in 10.0 mi SSW 4.6 mph - N/A   Overcast
9:40 PM 33.8 °F 29.6 °F 32.0 °F 93% 30.33 in 10.0 mi SSW 4.6 mph - N/A   Overcast
9:55 PM 33.8 °F 28.6 °F 32.0 °F 93% 30.33 in 10.0 mi South 5.8 mph - N/A   Overcast
10:15 PM 35.6 °F 31.7 °F 32.0 °F 87% 30.32 in 10.0 mi SSW 4.6 mph - N/A   Overcast
10:35 PM 35.6 °F 30.7 °F 32.0 °F 87% 30.32 in 10.0 mi South 5.8 mph - N/A   Overcast
10:40 PM 35.6 °F 30.7 °F 32.0 °F 87% 30.32 in 10.0 mi South 5.8 mph - N/A   Overcast
10:55 PM 35.6 °F 29.9 °F 32.0 °F 87% 30.31 in 10.0 mi South 6.9 mph - N/A   Overcast
11:00 PM 35.6 °F 29.9 °F 32.0 °F 87% 30.31 in 10.0 mi South 6.9 mph - N/A   Mostly Cloudy
11:15 PM 33.8 °F 28.6 °F 32.0 °F 93% 30.31 in 10.0 mi South 5.8 mph - N/A   Scattered Clouds
11:40 PM 33.8 °F 27.7 °F 32.0 °F 93% 30.30 in 10.0 mi South 6.9 mph - N/A   Mostly Cloudy
11:55 PM 33.8 °F 28.6 °F 30.2 °F 87% 30.30 in 10.0 mi South 5.8 mph - N/A   Scattered Clouds